作者gold97972000 (Miyanaga Saki)
看板SteveNash13
標題Fw: [花邊] Nash用手機記錄勇士頒獎美好瞬間
時間Wed Jun 14 00:13:38 2017
※ [本文轉錄自 NBA 看板 #1PFwT8Fn ]
作者: Yui5 (唯控) 看板: NBA
標題: [花邊] Nash用手機記錄勇士頒獎美好瞬間
時間: Tue Jun 13 16:50:10 2017
Nash用手機記錄勇士頒獎美好瞬間
虎撲6月13日訊 勇士今天在主場擊敗騎士,總比分4比1奪得總冠軍。前
NBA球星,目前擔任勇士球員發展顧問的Steve Nash今天也來到了比賽現
場,賽後他也與眾球迷一道用手機記錄下了勇士頒獎典禮。
https://twitter.com/ArashMarkazi/status/874519748012158976
影片:Nash舉著手機拍勇士的奪冠場景>>
值得一提的是,勇士奪冠之後,Nash也將收穫個人的第一枚總冠軍戒指。
(編輯:東尼豬)
https://voice.hupu.com/nba/2169565.html
備註:
今天最值得高興的一件事,
Nash終於有屬於自己的總冠軍戒指了QQ
--
※ 發信站: 批踢踢實業坊(ptt.cc), 來自: 27.154.68.216
※ 文章網址: https://webptt.com/m.aspx?n=bbs/NBA/M.1497343816.A.3F1.html
1F:推 kilong17 : Nash QQ 06/13 16:50
2F:推 doiverson : nash~~~~~~ 06/13 16:50
3F:推 gidens : Nash QQ 06/13 16:51
4F:推 freetempo : 恭喜岳父 06/13 16:51
5F:推 kelvintube : VC要不要參考一下.... 06/13 16:51
6F:→ tatata : 在太陽時真的很可惜 06/13 16:51
7F:→ crazylin924 : 岳父~~~~ 06/13 16:51
8F:推 kimi255085 : QQ 06/13 16:51
9F:推 Fadeway : 老納~~~ 06/13 16:51
10F:推 cch75 : 有MVP無冠的五人有三個控衛 敬佩他 不過NBA矮=缺點. 06/13 16:52
11F:推 HydeTseng : QQ 06/13 16:52
12F:推 longmok2500 : NashQQ 球員生涯沒拿到冠軍真的很可惜 06/13 16:52
13F:推 imemhaha : 嗚嗚嗚嗚嗚Nash第一枚戒指QQ 06/13 16:52
14F:推 special30708: NASH QQ 球員時沒奪冠真的可惜 06/13 16:52
15F:推 kane840104 : 終於啊終於 NASH QQ 06/13 16:54
16F:推 kahigh : Nash~ 06/13 16:54
17F:推 Bonjwa : 岳父! 06/13 16:54
18F:→ ddrose : 飄髮哥 06/13 16:55
19F:推 Victorrr : Nash終於 QQ 06/13 16:55
20F:推 windsp00 : T. T 06/13 16:55
21F:推 handsomecat : QQ 06/13 16:56
22F:推 bightt97018 : NASH 推 06/13 16:56
23F:推 Zphoenix : 如果Nash有機會和Kobe+MWP+Gasol+Howard組隊就好了 06/13 16:56
24F:推 ilovemlb40 : 推QQ 06/13 16:56
25F:推 waiting0801 : 奈許推推!! 06/13 16:56
26F:推 BadSalaD : NashQQ 06/13 16:56
27F:→ hhttp : QQ 06/13 16:57
28F:推 s89162504 : z大說的也太扯了吧 我還以為勇士現在就夠大團了 06/13 16:58
29F:推 bruce00595 : NASH!! 06/13 16:59
30F:推 t32908 : 終於 06/13 16:59
31F:推 pida5566 : 淚推 06/13 17:00
32F:推 deed0903 : 水啦 06/13 17:00
33F:推 vgil : 幫老奈QQ 06/13 17:01
34F:噓 day00145 : 笑死人z大那團打的贏LBJ+KI+KL+KK+DW+JR? 06/13 17:01
35F:推 iWatch2 : 恭喜加拿大林書豪 06/13 17:02
36F:→ Yui5 : 說真的,Nash如果是巔峰期去湖人真的很扯.. 06/13 17:02
37F:推 b9606022 : VC去勇士啦! 06/13 17:02
38F:→ sylviehsiang: 奶昔終於有資格可以像巴克利了 06/13 17:04
39F:推 zteboom46 : Nash Q_Q 06/13 17:04
40F:推 ricci229485 : 恭喜Nash,真的令人開心 06/13 17:05
41F:推 Toy17 : 恭喜岳父大人終於拿到冠軍戒指 06/13 17:05
42F:推 jazz19860929: 我最愛的球員QQ 06/13 17:06
43F:推 gox1117 : Nash QQ 06/13 17:07
44F:推 a176893 : QQ 06/13 17:07
45F:推 iorittn : QQ 06/13 17:08
46F:推 lav1147 : 恭喜NASH,雖然不是球員時期拿到,不過也算有戒指了 06/13 17:08
47F:推 JessicaA1ba : 無聊,不是球員期拿的戒指沒有意義 06/13 17:09
48F:推 kirbya : 超爽的,撿到一枚冠軍戒 06/13 17:10
49F:推 david319 : 恭喜Nash 06/13 17:11
50F:推 taipeifinest: QQ 06/13 17:12
51F:推 vovzz : Nash好開心 06/13 17:16
52F:→ bluereturn : 淚推Nash!!!! 06/13 17:17
53F:推 Timba : 包溫快出來坦 06/13 17:19
54F:推 kvhiucn : Nash!只好推了 06/13 17:19
55F:推 woo5566 : 在邁哈密海灘也能撿到冠軍戒,好爽 06/13 17:20
56F:推 kevinwei223 : Nash~~ 06/13 17:20
57F:推 lunsanity : VC可以考慮勇士拉 06/13 17:21
58F:推 freeland : Nash QQ 06/13 17:24
59F:推 OSDim : 恭喜Nash(/_;) 06/13 17:25
60F:推 yua0603 : 推Nash 06/13 17:26
61F:推 turbomons : 可喜可賀 06/13 17:27
62F:推 XaunShang : Nash QAQ 06/13 17:28
63F:推 michael0419 : QQ 06/13 17:30
64F:推 qpqp7788 : 恭喜nash 好像很少人的天花板是他? 06/13 17:33
65F:→ Zphoenix : 鬍子啊 不過鬍子天花板可能更高 理性勿戰 06/13 17:34
66F:推 cgabear : 推,蒼天有眼。 06/13 17:38
67F:推 noname78531 : 一代傳奇 QQ 06/13 17:40
68F:推 special30708: 我覺得鬍子跟nash有點不太像欸 06/13 17:42
69F:推 GabriaL : 推納什~~~ 06/13 17:43
70F:→ chris0701 : 鬍子天花板哪是Nash 你認真嗎 06/13 17:43
71F:推 chungrew : Nash 裴頓 史托克頓 都是沒拿到總冠軍的控衛 06/13 17:43
72F:推 weiyu1988 : 太好了 Nash 06/13 17:44
73F:→ chungrew : 這幾個巨星我覺得都有資格拿戒指 06/13 17:44
74F:→ Aggro : 鬍子和Nash型就不同 06/13 17:47
75F:推 rockkung : 退休後拿到總比沒有好,淚推! 06/13 17:48
76F:推 flashturtle : Nash 06/13 17:49
77F:推 harei325 : 恭喜Nash 06/13 17:49
78F:推 jaworuji : 恭喜Nash! 06/13 17:50
79F:→ skybin : Payton拿過了,2006熱火 06/13 17:50
80F:噓 femlro : 紅明顯 講Nash的至少都快30惹 06/13 17:51
81F:推 sissy27 : 講廢話是要明顯什麼= =? 06/13 17:53
82F:推 jewish123 : 不然要講什麼 快30是什麼梗嗎 06/13 17:58
83F:→ hojoe : QQ 06/13 18:00
84F:推 n810516 : QQ 06/13 18:09
85F:推 aatt43a : 我納QQ 06/13 18:13
86F:→ PTTymarch : 恭喜QQ 06/13 18:15
87F:推 cgabear : 回某樓,payton有拿喔,06年黑金火牛戰。 06/13 18:16
88F:推 Tawara : Nash....QQ 06/13 18:19
89F:推 z36963zat : 哦哦哦喔喔 06/13 18:22
90F:推 jerrys0580 : 推黃字 只可惜不是球員身份得的 06/13 18:24
91F:推 Rothur : Nash QQ 06/13 18:29
92F:推 metomman : 恭喜納時 06/13 18:29
93F:→ gowaa : Nash QQ 06/13 18:36
94F:→ murmurer : QQ 06/13 18:36
95F:推 ak147 : 說球員時期的你也看看他對手是誰... 06/13 18:42
96F:推 grimnir158 : 推Nash 06/13 18:55
97F:推 js0431 : QQ 06/13 18:55
98F:推 PassthebyLai: 幫QQ 06/13 19:00
99F:推 shooooooboom: 覺得港動 06/13 19:01
100F:推 gg889g8 : NASH 拿戒指 感動 06/13 19:08
101F:→ skygray2 : QQ 06/13 19:09
102F:推 timeshadow : NASH!!!!!!!!!!!!!!!!!!! 06/13 19:11
103F:推 saiallblue : 淚推NASH!!! 06/13 19:14
104F:推 spky : 酸酸: 抱腿顧問 06/13 19:15
105F:推 kent0925 : Nash 這樣算是「 奪冠 」囉? 06/13 19:18
106F:推 RuleAllWorld: 我有戒子了!我可以進名人堂了 06/13 19:43
107F:推 asecw : 岳父QQ 06/13 19:44
108F:推 binodal : QQ 06/13 19:51
109F:推 lkshfish : QQ 這太值得哭了 06/13 20:06
110F:推 hcder4126 : 淚推 06/13 20:10
111F:推 blackstorm : NASH~~~~ Q_Q 06/13 20:19
112F:推 jerry761031 : Nash!!!! 06/13 20:20
113F:推 Bogeenash : Nash~~~~~~我好想你 06/13 20:27
114F:推 fish780722 : 太催淚了 06/13 20:30
115F:推 choonst : 淚推Nash,球員時期真的很可惜QQ 06/13 20:50
116F:推 bigliang : 推 06/13 20:54
117F:→ freaky791011: Nash! 06/13 20:57
118F:推 brate : 淚推Nash 06/13 21:12
119F:推 Ssy990324 : NASH QQ 希望VC也能有一個啊QAQ 06/13 21:26
120F:推 easybaby : QQ 06/13 21:39
121F:→ klagalas : 岳父 06/13 21:43
122F:推 gold97972000: 推 06/13 22:01
123F:推 ffire : 推Nash 06/13 22:35
124F:推 hgb0120 : 哭哭 06/13 22:56
125F:推 valhallaband: 終於不是當年太陽陣中唯一沒戒指的了 06/13 23:31
126F:推 max537 : 推! 06/13 23:35
127F:→ CHELun : nash!!!!!!!!!!!!! 06/13 23:38
128F:推 yun0215 : 恭喜NASH !!!!!! 06/14 00:02
129F:推 gold97972000: 屆轉岳父大人版 06/14 00:13
※ 發信站: 批踢踢實業坊(ptt.cc)
※ 轉錄者: gold97972000 (36.233.236.233), 06/14/2017 00:13:38
130F:推 indigo13: 淚推,等很久了114.136.125.122 06/14 08:32
131F:推 bluereturn: 恭喜nash.....QQ 223.137.89.249 06/15 17:43
132F:推 kenwufederer: 推一個 114.136.156.41 06/22 14:03